Weather History for KAIG - December, 2012

Change the Weather History Date:

Saturday, December 8, 2012

  Actual Average (KAUW) Record (KAUW)
Temperature  
Mean Temperature 22 °F 21 °F  
Max Temperature 30 °F 29 °F 52 °F (1946)
Min Temperature 14 °F 14 °F -17 °F (1927)
Degree Days  
Heating Degree Days 43 44  
Month to date heating degree days 338  
Since 1 July heating degree days 2197  
Cooling Degree Days 0 0  
Month to date cooling degree days 0  
Year to date cooling degree days 407  
Moisture  
Dew Point 19 °F    
Average Humidity 84    
Maximum Humidity 97    
Minimum Humidity 62    
Precipitation  
Precipitation 0.00 in 0.05 in 0.35 in (1963)
Month to date precipitation 0.40  
Year to date precipitation 31.45  
Snow  
Snow 0.00 in 0.40 in 4.50 in (2009)
Month to date snowfall 3.4  
Since 1 July snowfall 11.7  
Snow Depth -    
Sea Level Pressure  
Sea Level Pressure 30.03 in    
Wind  
Wind Speed 4 mph (ENE)    
Max Wind Speed 12 mph    
Max Gust Speed -    
Visibility 8 miles    
Events Fog , Snow    
T = Trace of Precipitation, MM = Missing Value Source: NWS Daily Summary

Daily Weather History Graph

Daily Weather History Graph

Search for Another Location

Airport or City:

Trip Planner

Search our weather history database for the weather conditions in past years. The results will help you decide how hot, cold, wet, or windy it might be!

Date:

Astronomy

Dec. 08, 2012 Rise Set
Actual Time 7:22 AM CST 4:14 PM CST
Civil Twilight 6:49 AM CST 4:47 PM CST
Nautical Twilight 6:12 AM CST 5:25 PM CST
Astronomical Twilight 5:36 AM CST 6:00 PM CST
Moon 1:35 AM CST (12/8) 12:54 PM CST (12/8)
Length of Visible Light 9h 58m
Length of Day
8h 51m
Waning Crescent, 28% of the Moon is Illuminated
Dec 8
Waning Crescent
Dec 13
New
Dec 19
First Quarter
Dec 28
Full
Jan 4
Last Quarter

Hourly Weather History & Observations

Time (CST) Temp. Windchill Dew Point Humidity Pressure Visibility Wind Dir Wind Speed Gust Speed Precip Events Conditions
12:15 AM 25.2 °F 15.7 °F 22.6 °F 90% 29.98 in 5.0 mi North 9.2 mph - N/A Snow Light Snow
12:35 AM 24.6 °F 15.8 °F 22.8 °F 93% 29.96 in 4.0 mi North 8.1 mph - N/A   Overcast
12:55 AM 24.6 °F 16.7 °F 22.8 °F 93% 29.96 in 5.0 mi North 6.9 mph - N/A   Overcast
1:15 AM 24.4 °F 16.5 °F 22.6 °F 93% 29.96 in 7.0 mi North 6.9 mph - N/A   Overcast
1:35 AM 24.3 °F 17.3 °F 22.1 °F 91% 29.96 in 7.0 mi NNE 5.8 mph - N/A   Overcast
1:55 AM 24.3 °F 17.3 °F 22.1 °F 91% 29.96 in 7.0 mi NNE 5.8 mph - N/A   Overcast
2:15 AM 24.3 °F 17.3 °F 22.1 °F 91% 29.97 in 7.0 mi NNE 5.8 mph - N/A Snow Light Snow
2:35 AM 24.3 °F 16.3 °F 22.5 °F 93% 29.96 in 4.0 mi NE 6.9 mph - N/A Snow Light Snow
2:55 AM 23.9 °F 16.8 °F 22.5 °F 94% 29.96 in 3.0 mi NNE 5.8 mph - N/A Snow Light Snow
3:15 AM 23.9 °F 18.0 °F 22.5 °F 94% 29.96 in 4.0 mi North 4.6 mph - N/A Snow Light Snow
3:35 AM 23.7 °F 19.3 °F 21.7 °F 92% 29.96 in 5.0 mi North 3.5 mph - N/A Snow Light Snow
3:55 AM 23.5 °F 16.4 °F 22.1 °F 94% 29.96 in 10.0 mi North 5.8 mph - N/A Snow Light Snow
4:15 AM 23.0 °F 17.0 °F 21.6 °F 94% 29.96 in 10.0 mi North 4.6 mph - N/A Snow Light Snow
4:35 AM 22.1 °F 15.9 °F 20.3 °F 93% 29.97 in 4.0 mi North 4.6 mph - N/A Snow Light Snow
4:55 AM 21.2 °F 16.4 °F 20.3 °F 96% 29.97 in 7.0 mi North 3.5 mph - N/A Snow Light Snow
5:15 AM 19.8 °F - 18.7 °F 96% 29.98 in 7.0 mi Calm Calm - N/A Snow Light Snow
5:35 AM 19.4 °F - 18.7 °F 97% 29.98 in 5.0 mi Calm Calm - N/A Snow Light Snow
5:55 AM 19.0 °F - 18.3 °F 97% 29.98 in 10.0 mi Calm Calm - N/A Snow Light Snow
6:15 AM 17.6 °F - 16.9 °F 97% 29.98 in 7.0 mi Calm Calm - N/A   Clear
6:35 AM 17.2 °F - 16.3 °F 96% 29.98 in 7.0 mi Calm Calm - N/A   Clear
6:55 AM 14.4 °F - 13.1 °F 95% 29.99 in 5.0 mi Calm Calm - N/A   Clear
7:15 AM 15.1 °F - 14.2 °F 96% 30.00 in 0.5 mi Calm Calm - N/A Fog Light Freezing Fog
7:35 AM 14.5 °F - 13.5 °F 95% 30.01 in 0.2 mi Calm Calm - N/A Fog Light Freezing Fog
7:55 AM 14.9 °F - 14.0 °F 96% 30.01 in 0.5 mi Calm Calm - N/A Fog Light Freezing Fog
8:15 AM 18.1 °F - 16.9 °F 95% 30.00 in 10.0 mi Calm Calm - N/A   Mostly Cloudy
8:35 AM 19.8 °F - 18.7 °F 96% 30.01 in 10.0 mi Calm Calm - N/A   Overcast
8:55 AM 19.8 °F - 18.7 °F 96% 30.01 in 10.0 mi Calm Calm - N/A   Scattered Clouds
9:15 AM 21.0 °F - 19.9 °F 96% 30.02 in 10.0 mi Calm Calm - N/A   Clear
9:35 AM 22.1 °F - 21.0 °F 96% 30.03 in 10.0 mi Calm Calm - N/A   Clear
9:55 AM 22.5 °F - 21.2 °F 95% 30.03 in 10.0 mi Calm Calm - N/A   Clear
10:15 AM 23.0 °F - 21.7 °F 95% 30.03 in 10.0 mi Calm Calm - N/A   Clear
10:35 AM 24.4 °F - 22.3 °F 91% 30.03 in 10.0 mi Calm Calm - N/A   Clear
10:55 AM 25.7 °F 21.5 °F 21.0 °F 82% 30.03 in 10.0 mi NE 3.5 mph - N/A   Clear
11:15 AM 26.8 °F 22.8 °F 21.2 °F 79% 30.02 in 10.0 mi NNE 3.5 mph - N/A   Clear
11:35 AM 27.5 °F - 20.8 °F 76% 30.02 in 10.0 mi Calm Calm - N/A   Clear
11:55 AM 28.4 °F - 21.0 °F 74% 30.02 in 10.0 mi Calm Calm - N/A   Clear
12:15 PM 28.4 °F - 20.5 °F 72% 30.01 in 10.0 mi Calm Calm - N/A   Clear
12:35 PM 29.3 °F 25.6 °F 20.3 °F 69% 30.01 in 10.0 mi NNE 3.5 mph - N/A   Clear
12:55 PM 29.7 °F - 20.1 °F 68% 30.02 in 10.0 mi Calm Calm - N/A   Clear
1:15 PM 30.0 °F 26.5 °F 20.1 °F 67% 30.02 in 10.0 mi North 3.5 mph - N/A   Clear
1:35 PM 30.2 °F - 19.2 °F 64% 30.02 in 10.0 mi Calm Calm - N/A   Clear
1:55 PM 30.2 °F - 19.6 °F 65% 30.01 in 10.0 mi Calm Calm - N/A   Clear
2:15 PM 30.4 °F - 19.6 °F 64% 30.00 in 10.0 mi Calm Calm - N/A   Clear
2:35 PM 30.7 °F - 20.1 °F 65% 30.01 in 10.0 mi Calm Calm - N/A   Clear
2:55 PM 30.9 °F - 19.6 °F 63% 30.02 in 10.0 mi Calm Calm - N/A   Clear
3:15 PM 30.9 °F - 19.4 °F 62% 30.03 in 10.0 mi Calm Calm - N/A   Clear
3:35 PM 30.2 °F - 19.8 °F 65% 30.03 in 10.0 mi Calm Calm - N/A   Clear
3:55 PM 29.7 °F - 19.4 °F 66% 30.05 in 10.0 mi Calm Calm - N/A   Clear
4:15 PM 28.4 °F - 19.6 °F 70% 30.06 in 10.0 mi Calm Calm - N/A   Clear
4:35 PM 26.8 °F 22.8 °F 21.6 °F 81% 30.05 in 10.0 mi NE 3.5 mph - N/A   Clear
4:55 PM 25.2 °F 20.9 °F 21.6 °F 86% 30.05 in 10.0 mi NE 3.5 mph - N/A   Clear
5:15 PM 25.0 °F 19.3 °F 19.8 °F 81% 30.06 in 10.0 mi East 4.6 mph - N/A   Clear
5:35 PM 25.2 °F 20.9 °F 19.0 °F 78% 30.07 in 10.0 mi East 3.5 mph - N/A   Clear
5:55 PM 25.5 °F 19.9 °F 20.5 °F 81% 30.07 in 10.0 mi East 4.6 mph - N/A   Clear
6:15 PM 24.6 °F 20.3 °F 20.1 °F 83% 30.08 in 10.0 mi ESE 3.5 mph - N/A   Clear
6:35 PM 24.8 °F 19.1 °F 18.1 °F 76% 30.08 in 10.0 mi East 4.6 mph - N/A   Clear
6:55 PM 23.7 °F 17.8 °F 19.0 °F 82% 30.08 in 10.0 mi ENE 4.6 mph - N/A   Clear
7:15 PM 24.1 °F 17.0 °F 18.3 °F 79% 30.08 in 10.0 mi East 5.8 mph - N/A   Clear
7:35 PM 23.7 °F 15.6 °F 18.3 °F 80% 30.09 in 10.0 mi East 6.9 mph - N/A   Clear
7:55 PM 23.7 °F 15.6 °F 18.5 °F 80% 30.08 in 10.0 mi East 6.9 mph - N/A   Clear
8:15 PM 23.9 °F 15.0 °F 18.3 °F 79% 30.08 in 10.0 mi ESE 8.1 mph - N/A   Clear
8:35 PM 23.0 °F 13.9 °F 18.1 °F 82% 30.08 in 10.0 mi ESE 8.1 mph - N/A   Clear
8:55 PM 23.7 °F 12.6 °F 18.1 °F 79% 30.08 in 10.0 mi ESE 11.5 mph - N/A   Clear
9:15 PM 23.4 °F 13.5 °F 17.6 °F 79% 30.09 in 10.0 mi ESE 9.2 mph - N/A   Clear
9:35 PM 22.6 °F 13.4 °F 17.2 °F 80% 30.08 in 10.0 mi ESE 8.1 mph - N/A   Clear
9:55 PM 22.6 °F 13.4 °F 17.4 °F 80% 30.08 in 10.0 mi ESE 8.1 mph - N/A   Clear
10:15 PM 22.1 °F 12.0 °F 16.7 °F 80% 30.09 in 10.0 mi ESE 9.2 mph - N/A   Clear
10:35 PM 21.7 °F 13.2 °F 16.7 °F 81% 30.10 in 10.0 mi ESE 6.9 mph - N/A   Clear
10:55 PM 21.6 °F 14.0 °F 16.5 °F 81% 30.11 in 10.0 mi SE 5.8 mph - N/A   Clear
11:15 PM 20.1 °F 12.3 °F 15.6 °F 83% 30.12 in 10.0 mi SE 5.8 mph - N/A   Clear
11:35 PM 20.3 °F 12.5 °F 15.8 °F 83% 30.11 in 10.0 mi ESE 5.8 mph - N/A   Clear
11:55 PM 21.6 °F 13.0 °F 16.5 °F 81% 30.11 in 10.0 mi ESE 6.9 mph - N/A   Clear